Location: Gisborne
(38.6530°S, 178.0040°E)
Time: 16:41:01
(UTC+13:00)

Cosmos 2322 - Pass Details

Date: 24 January 2019
Orbit: 839 x 856 km, 71.0° (Epoch: 16 February)

Event Time Altitude Azimuth Distance (km) Brightness Sun altitude
Exits shadow 23:18:14 23° 316° (NW) 1,752 5.2 -25.5°
Maximum altitude 23:21:47 58° 244° (WSW) 994 4.2 -25.8°
Drops below altitude 10° 23:27:26 10° 165° (SSE) 2,492 6.7 -26.4°
Sets 23:29:57 0° 161° (SSE) 3,431 7.4 -26.6°
